Location: Gajan
(43.0218°N, 1.1244°E)
Time: 03:33:24
(UTC+00:00)

Cosmos 1741 Rocket - Pass Details

Date: 22 April 2021
Orbit: 762 x 781 km, 74.0° (Epoch: 15 May)

Event Time Altitude Azimuth Distance (km) Brightness Sun altitude
Exits shadow 22:05:12 68° 312° (NW) 838 4.2 -29.2°
Drops below altitude 10° 22:10:14 10° 16° (NNE) 2,328 7.0 -29.6°
Sets 22:12:38 0° 19° (NNE) 3,256 7.8 -29.8°
